Regional Weather Roundup
Issued by NWS

Home | Current Version | Previous Version | Text Only | Print | Product List | Glossary On
Versions: 1 2 3 4 5 6 7 8 9 10 11 12 13 14 15 16 17 18 19 20 21 22 23 24 25 26 27 28 29 30 31 32 33 34 35 36 37 38 39 40 41 42 43 44 45 46 47 48 49 50
000
ASUS45 KCYS 281810
RWRWY

WYOMING REGIONAL WEATHER ROUNDUP
NATIONAL WEATHER SERVICE CHEYENNE WY
1100 AM MST WED JAN 28 2015

NOTE:  "FAIR" INDICATES FEW OR NO CLOUDS BELOW 12,000 FEET
WITH NO SIGNIFICANT WEATHER AND/OR OBSTRUCTIONS TO VISIBILITY.

WYZ001-281900-
YELLOWSTONE NATIONAL PARK

CITY           SKY/WX    TMP DP  RH WIND       PRES   REMARKS
LK YELLOWSTONE   N/A     31  29  92 CALM      30.25R
6HR MIN TEMP:  28; 6HR MAX TEMP:  31; 6HR PCP:  0.08;

W YELLOWSTONE  NOT AVBL

$$
WYZ002>013-054>058-071-098>099-281900-
NORTHERN WYOMING

CITY           SKY/WX    TMP DP  RH WIND       PRES   REMARKS
JACKSON        PTSUNNY   37  34  87 CALM      30.23R
CODY           CLOUDY    45  39  81 W3        30.15R
GREYBULL       CLOUDY    36  36 100 SE5       30.15R FOG     WCI  32
6HR MIN TEMP:  32; 6HR MAX TEMP:  36; 6HR PCP:  0.16;

WORLAND        CLOUDY    35  33  92 SW12      30.14R WCI  27
6HR MIN TEMP:  32; 6HR MAX TEMP:  35; 6HR PCP:  0.11;

SHERIDAN       CLOUDY    49  33  54 NW23G29   30.10R
6HR MIN TEMP:  44; 6HR MAX TEMP:  50; 6HR PCP: TRACE;

BUFFALO          N/A     47  32  56 NW25G33   30.08R
6HR MIN TEMP:  44; 6HR MAX TEMP:  50; 6HR PCP: TRACE;

GILLETTE       CLOUDY    48  32  53 NW13      30.04R
6HR MIN TEMP:  43; 6HR MAX TEMP:  50;

HULETT           N/A    N/A N/A N/A MISG        N/A
NEWCASTLE      FAIR      46  25  42 NW21G31   30.00R

$$
WYZ014>020-022>026-101>103-281900-
CENTRAL WYOMING

CITY           SKY/WX    TMP DP  RH WIND       PRES   REMARKS
BIG PINEY      PTSUNNY   33  29  85 VRB3      30.24R
6HR MIN TEMP:  21; 6HR MAX TEMP:  33; 6HR PCP: TRACE;

PINEDALE       CLOUDY    32  28  86 NW5       30.24S WCI  27
DUBOIS         FAIR      39  27  60 W21G30    30.16S WCI  29
LANDER         FAIR      41  29  62 SE3       30.12R
6HR MIN TEMP:  31; 6HR MAX TEMP:  42;

RIVERTON       FAIR      40  31  70 E6        30.15R
6HR MIN TEMP:  29; 6HR MAX TEMP:  44;

CASPER         RAIN      37  35  92 NW12      30.14R FOG     WCI  29
6HR MIN TEMP:  36; 6HR MAX TEMP:  39; 6HR PCP:  0.06;

DOUGLAS        LGT RAIN  36  35  96 W20       30.11R WCI  25
6HR MIN TEMP:  36; 6HR MAX TEMP:  46; 6HR PCP:  0.01;


$$
WYZ021-027>030-104>119-281900-
SOUTHERN WYOMING

CITY           SKY/WX    TMP DP  RH WIND       PRES   REMARKS
EVANSTON       CLOUDY    36  31  82 SW12      30.28R WCI  28
6HR MIN TEMP:  32; 6HR MAX TEMP:  36; 6HR PCP: TRACE;

KEMMERER       CLOUDY    34  32  93 W15       30.26R WCI  24
FORT BRIDGER   FAIR      40  33  76 W25       30.29R WCI  30
ROCK SPRINGS   FAIR      38  30  73 W24       30.22S WCI  27
6HR MIN TEMP:  32; 6HR MAX TEMP:  38;

DIXON          CLOUDY    40  32  73 SW10      30.28R WCI  34
RAWLINS        PTSUNNY   40  29  64 W20G33    30.18S WCI  30
6HR MIN TEMP:  34; 6HR MAX TEMP:  40; 6HR PCP: TRACE;

SARATOGA       MOCLDY    37  30  75 W32G38    30.18F WCI  25
LARAMIE        FAIR      40  28  62 W30G41    30.10F WCI  28
6HR MIN TEMP:  35; 6HR MAX TEMP:  44;

CHEYENNE       FAIR      50  26  39 NW22G39   30.08R
6HR MIN TEMP:  35; 6HR MAX TEMP:  50;

TORRINGTON     FAIR      54  32  43 NW24G44   30.01R
6HR MIN TEMP:  47; 6HR MAX TEMP:  57;

PINE BLUFFS    FAIR      52  28  40 W36G51    30.03S

$$



USA.gov is the U.S. government's official web portal to all federal, state and local government web resources and services.